[[{"header":{"parameterUnit":"m.s-1","parameterCategory":1,"la1":30.2991,"la2":30.254,"lo1":-89.0895,"lo2":-89.0444,"dy":0.0017,"dx":0.0017,"nx":28,"ny":28,"refTime":"2023-10-27T09:00:00:Z","depth":0,"parameterNumber":2,"parameterNumberName":"U-component_of_WINDS"},"data":[0,0,0,0,0,0,0,0,0,0,0,0,0,0,0,0,0,0,0,0,0,0,0,0,0,0,0,0,0,0,0,0,0,0,0,0,0,0,0,0,0,0,0,0,0,0,0,0,0,0,0,0,0,0,0,0,0,0,-2.4463,-2.4462,0,-2.4407,-2.4407,-2.4406,-2.429,-2.4287,-2.4285,-2.4283,-2.4229,-2.423,-2.423,0,0,0,0,0,0,0,0,0,0,0,0,0,-2.4472,-2.4473,-2.4463,-2.4462,-2.4461,-2.4407,-2.4407,-2.4406,-2.429,-2.4287,-2.4284,-2.4282,-2.4229,-2.4229,-2.423,0,0,0,0,0,0,0,0,0,0,0,0,0,-2.4448,-2.4473,-2.4463,-2.4397,-2.4391,-2.4408,-2.4407,-2.4406,-2.4291,-2.4287,-2.4284,-2.428,-2.4228,-2.4229,-2.423,-2.4308,0,0,-2.4234,-2.4234,0,0,0,0,0,0,0,0,-2.4449,-2.4448,-2.4407,-2.4402,-2.4394,-2.4352,-2.439,-2.4373,-2.4292,-2.4329,-2.4283,-2.4279,-2.4273,-2.427,-2.4267,-2.4305,-2.4303,-2.4234,-2.4235,-2.4235,-2.4236,0,0,0,0,0,0,0,-2.4451,-2.4449,-2.4441,-2.4407,-2.4399,-2.4372,-2.4364,-2.4386,-2.4321,-2.4325,-2.4317,-2.4311,-2.4269,-2.4267,-2.4265,-2.4302,-2.4234,-2.4235,-2.4236,-2.4236,-2.4403,-2.4407,0,0,0,0,0,0,-2.4462,-2.4452,-2.4443,-2.4439,-2.4414,-2.4374,-2.4366,-2.4369,-2.4321,-2.431,-2.4315,-2.4306,-2.4266,-2.4264,-2.4263,-2.4351,-2.4235,-2.4236,-2.4237,-2.44,-2.4404,-2.4408,0,0,0,0,0,0,-2.4463,-2.4462,-2.4445,-2.4443,-2.4439,-2.4378,-2.4382,-2.437,-2.4367,-2.4313,-2.4301,-2.4324,-2.4264,-2.4261,-2.4298,-2.4348,-2.4237,-2.4238,-2.4395,-2.4401,-2.4406,-2.4528,0,0,0,0,0,0,-2.4463,-2.4463,-2.4491,-2.4444,-2.4439,-2.448,-2.4385,-2.4371,-2.437,-2.4358,-2.4319,-2.4309,-2.4261,-2.4297,-2.4299,-2.4347,-2.4239,-2.439,-2.4398,-2.4404,-2.452,-2.4538,-2.4553,0,0,0,0,0,-2.4464,-2.4528,-2.4493,-2.4492,-2.4472,-2.4483,-2.448,-2.4422,-2.4374,-2.4402,-2.4367,-2.431,-2.4342,-2.4302,-2.4303,-2.4352,-2.4387,-2.4396,-2.4404,-2.4512,-2.4534,-2.4552,0,0,0,0,0,0,-2.4582,-2.452,-2.4481,-2.4531,-2.4513,-2.4463,-2.4496,-2.4447,-2.4443,-2.4433,-2.4363,-2.4355,-2.4401,-2.438,-2.4336,-2.4426,-2.4356,-2.4365,-2.4438,-2.4458,-2.4474,-2.4478,-2.424,0,0,0,0,0,-2.4614,-2.4626,-2.4572,-2.4622,-2.4615,-2.4558,-2.456,-2.4518,-2.4496,-2.4488,-2.4456,-2.4438,-2.4445,-2.445,-2.4453,-2.4517,-2.4507,-2.4552,-2.4568,-2.4582,-2.4591,-2.4625,-2.4644,-2.4436,-2.4436,-2.4436,0,0,-2.4679,-2.4647,-2.4659,-2.4645,-2.4625,-2.4641,-2.4552,-2.4572,-2.4583,-2.4491,-2.4524,-2.45,-2.4476,-2.4527,-2.4548,-2.4511,-2.4647,-2.4593,-2.4604,-2.4605,-2.4635,-2.4655,-2.4673,-2.4442,-2.4441,-2.444,0,0,-2.4807,-2.4784,-2.4823,-2.4806,-2.4778,-2.474,-2.475,-2.4708,-2.4689,-2.472,-2.4652,-2.4666,-2.4677,-2.4664,-2.4658,-2.4784,-2.4732,-2.4787,-2.4874,-2.4908,-2.4924,-2.4938,-2.4984,-2.5001,-2.4796,-2.4796,-2.4797,0,-2.4892,-2.4912,-2.485,-2.4874,-2.4871,-2.4788,-2.4829,-2.4816,-2.4791,-2.4791,-2.475,-2.4765,-2.4743,-2.479,-2.4821,-2.4819,-2.4829,-2.4791,-2.4927,-2.494,-2.4953,-2.4995,-2.5013,-2.4803,-2.4803,-2.4802,-2.4801,0,-2.5019,-2.5034,-2.5069,-2.5047,-2.5048,-2.508,-2.5024,-2.5033,-2.4991,-2.4958,-2.4993,-2.4964,-2.496,-2.4968,-2.4928,-2.5011,-2.4989,-2.4939,-2.4867,-2.498,-2.502,-2.5035,-2.4813,-2.4811,-2.4809,-2.4807,0,0,-2.5217,-2.5161,-2.5175,-2.5165,-2.513,-2.5141,-2.5171,-2.5167,-2.5176,-2.5163,-2.5187,-2.52,-2.5154,-2.5148,-2.5106,-2.5136,-2.5239,-2.5082,-2.508,-2.5112,-2.533,-2.5368,-2.5388,-2.5205,-2.5208,-2.521,-2.5332,0,-2.5336,-2.5383,-2.5329,-2.5388,-2.5402,-2.5325,-2.5352,-2.5334,-2.5305,-2.5314,-2.5283,-2.5293,-2.5231,-2.5227,-2.5253,-2.5221,-2.5282,-2.5211,-2.5228,-2.5229,-2.5236,-2.5408,-2.5448,-2.5565,-2.5347,-2.535,-2.5352,0,-2.5481,-2.5474,-2.5535,-2.5497,-2.5501,-2.5526,-2.5519,-2.5528,-2.5508,-2.5485,-2.548,-2.5429,-2.5458,-2.5389,-2.5429,-2.5382,-2.5386,-2.5372,-2.5375,-2.5374,-2.5297,-2.5412,-2.5601,-2.5619,-2.5375,-2.5373,-2.5371,0,-2.562,-2.5626,-2.5663,-2.5657,-2.5615,-2.5634,-2.5617,-2.5593,-2.5595,-2.559,-2.559,-2.5589,-2.5588,-2.5589,-2.5541,-2.5494,-2.5587,-2.5513,-2.557,-2.5571,-2.5592,-2.5591,-2.5784,-2.5595,-2.5595,-2.5595,-2.5594,0,-2.5758,-2.5798,-2.5725,-2.5748,-2.5792,-2.5731,-2.5776,-2.5752,-2.5732,-2.575,-2.5684,-2.5703,-2.5638,-2.565,-2.5613,-2.5652,-2.5653,-2.5636,-2.5625,-2.5641,-2.5644,-2.5642,-2.5633,-2.5599,-2.5598,-2.5597,-2.5597,0,-2.592,-2.5873,-2.5908,-2.5866,-2.5856,-2.589,-2.5854,-2.5875,-2.5843,-2.5867,-2.5869,-2.5819,-2.583,-2.5782,-2.5786,-2.576,-2.582,-2.5796,-2.5826,-2.5819,-2.5878,-2.5874,-2.6077,-2.6101,-2.5897,-2.5899,-2.5901,0,-2.6011,-2.604,-2.6001,-2.6008,-2.5995,-2.6008,-2.6009,-2.5952,-2.5956,-2.5937,-2.596,-2.5966,-2.5968,-2.5991,-2.5955,-2.5958,-2.5934,-2.6005,-2.5934,-2.595,-2.5935,-2.5934,-2.5937,-2.602,-2.6022,-2.6024,-2.6026,0,-2.6178,-2.6154,-2.6158,-2.6155,-2.6159,-2.6154,-2.6145,-2.6155,-2.6093,-2.6102,-2.6113,-2.6114,-2.6119,-2.6126,-2.6122,-2.6107,-2.6057,-2.6049,-2.6062,-2.6079,-2.6095,-2.6088,-2.5867,-2.6044,-2.6042,-2.6041,-2.604,-2.6039,-2.6307,-2.633,-2.6307,-2.6314,-2.6302,-2.6295,-2.6313,-2.6283,-2.6291,-2.6289,-2.6255,-2.6273,-2.6255,-2.6244,-2.6234,-2.6249,-2.6216,-2.6235,-2.6239,-2.6245,-2.6256,-2.6094,-2.6248,-2.6247,-2.6247,-2.6246,-2.6246,0,-2.6471,-2.6453,-2.646,-2.645,-2.6457,-2.6409,-2.6397,-2.6406,-2.6423,-2.6409,-2.6413,-2.6427,-2.6435,-2.6401,-2.6405,-2.6423,-2.6401,-2.6426,-2.6424,-2.6421,-2.6285,-2.6273,-2.6444,-2.6444,-2.6444,-2.6444,-2.6444,-2.6444,-2.6557,-2.6593,-2.6567,-2.6598,-2.6579,-2.6596,-2.6594,-2.6588,-2.6577,-2.6595,-2.6602,-2.6579,-2.6559,-2.6561,-2.6567,-2.6557,-2.6561,-2.6595,-2.6577,-2.645,-2.6431,-2.6412,-2.6401,-2.6596,-2.6597,-2.6713,-2.6714,-2.6715]},{"header":{"parameterUnit":"m.s-1","parameterCategory":1,"la1":30.2991,"la2":30.254,"lo1":-89.0895,"lo2":-89.0444,"dy":0.0017,"dx":0.0017,"nx":28,"ny":28,"refTime":"2023-10-27T09:00:00:Z","depth":0,"parameterNumber":3,"parameterNumberName":"V-component_of_WINDS"},"data":[0,0,0,0,0,0,0,0,0,0,0,0,0,0,0,0,0,0,0,0,0,0,0,0,0,0,0,0,0,0,0,0,0,0,0,0,0,0,0,0,0,0,0,0,0,0,0,0,0,0,0,0,0,0,0,0,0,0,-0.6124,-0.6125,0,-0.6195,-0.6196,-0.6197,-0.6228,-0.6228,-0.6228,-0.6228,-0.6298,-0.63,-0.6302,0,0,0,0,0,0,0,0,0,0,0,0,0,-0.601,-0.6012,-0.6124,-0.6125,-0.6126,-0.6195,-0.6196,-0.6197,-0.6228,-0.6228,-0.6228,-0.6228,-0.6298,-0.63,-0.6302,0,0,0,0,0,0,0,0,0,0,0,0,0,-0.6068,-0.6013,-0.6124,-0.6149,-0.6152,-0.6195,-0.6196,-0.6197,-0.6228,-0.6228,-0.6228,-0.6228,-0.6297,-0.63,-0.6303,-0.6324,0,0,-0.6312,-0.6313,0,0,0,0,0,0,0,0,-0.6065,-0.6072,-0.6145,-0.6148,-0.6151,-0.6203,-0.6182,-0.624,-0.6228,-0.6199,-0.6228,-0.6228,-0.6266,-0.6272,-0.6285,-0.6327,-0.633,-0.6312,-0.6314,-0.6315,-0.6316,0,0,0,0,0,0,0,-0.6061,-0.6069,-0.6152,-0.6146,-0.615,-0.6156,-0.6164,-0.6193,-0.6233,-0.6202,-0.6204,-0.6212,-0.6268,-0.6283,-0.6287,-0.6331,-0.6312,-0.6314,-0.6316,-0.6317,-0.6393,-0.6393,0,0,0,0,0,0,-0.6053,-0.6066,-0.615,-0.6154,-0.6107,-0.6158,-0.6168,-0.6186,-0.6233,-0.6239,-0.6213,-0.6214,-0.6278,-0.6284,-0.629,-0.6318,-0.6315,-0.6318,-0.6319,-0.6393,-0.6393,-0.6393,0,0,0,0,0,0,-0.6051,-0.606,-0.6147,-0.6111,-0.6122,-0.6161,-0.6181,-0.6188,-0.6202,-0.6241,-0.6248,-0.622,-0.6278,-0.6286,-0.6315,-0.6321,-0.6319,-0.6322,-0.6392,-0.6393,-0.6393,-0.6373,0,0,0,0,0,0,-0.6047,-0.6059,-0.6069,-0.6111,-0.6124,-0.6172,-0.6182,-0.6189,-0.6208,-0.621,-0.625,-0.6256,-0.6278,-0.6311,-0.6318,-0.6325,-0.6324,-0.6392,-0.6393,-0.6393,-0.6374,-0.6373,-0.6372,0,0,0,0,0,-0.6043,-0.606,-0.6069,-0.6079,-0.6137,-0.6172,-0.618,-0.6206,-0.6208,-0.6217,-0.6242,-0.6255,-0.6319,-0.6313,-0.6322,-0.633,-0.6392,-0.6392,-0.6393,-0.6374,-0.6373,-0.6372,0,0,0,0,0,0,-0.6016,-0.6066,-0.6077,-0.6108,-0.6136,-0.6177,-0.619,-0.6204,-0.6231,-0.6232,-0.6262,-0.627,-0.6297,-0.6316,-0.6309,-0.6352,-0.6356,-0.6359,-0.6339,-0.6338,-0.6338,-0.6333,-0.6326,0,0,0,0,0,-0.6014,-0.604,-0.6081,-0.6104,-0.6118,-0.6151,-0.6168,-0.6185,-0.6215,-0.6227,-0.6253,-0.6281,-0.6307,-0.6324,-0.635,-0.6376,-0.6385,-0.6386,-0.6385,-0.6384,-0.6386,-0.6401,-0.6401,-0.6395,-0.6395,-0.6395,0,0,-0.6009,-0.604,-0.6054,-0.61,-0.6124,-0.6148,-0.6161,-0.6187,-0.6205,-0.623,-0.626,-0.628,-0.6313,-0.6341,-0.6354,-0.6358,-0.6389,-0.6385,-0.6384,-0.6386,-0.6401,-0.6402,-0.6402,-0.6395,-0.6395,-0.6395,0,0,-0.6014,-0.604,-0.6062,-0.6086,-0.6122,-0.6144,-0.6149,-0.6189,-0.6203,-0.6234,-0.6253,-0.6274,-0.6319,-0.6342,-0.6359,-0.6371,-0.6384,-0.6378,-0.6375,-0.6389,-0.6389,-0.639,-0.6394,-0.6395,-0.638,-0.638,-0.638,0,-0.6004,-0.6043,-0.6071,-0.6096,-0.6115,-0.614,-0.6162,-0.6183,-0.6225,-0.6237,-0.624,-0.6296,-0.632,-0.6353,-0.6356,-0.6369,-0.6375,-0.6374,-0.6387,-0.6388,-0.6389,-0.6393,-0.6395,-0.6379,-0.6379,-0.6379,-0.6379,0,-0.6029,-0.6055,-0.6069,-0.611,-0.6131,-0.6154,-0.6184,-0.6201,-0.6217,-0.6238,-0.6268,-0.6297,-0.6329,-0.6338,-0.6353,-0.6373,-0.6374,-0.6382,-0.6387,-0.6388,-0.6393,-0.6395,-0.6377,-0.6378,-0.6378,-0.6378,0,0,-0.6019,-0.6075,-0.608,-0.6099,-0.614,-0.6161,-0.6184,-0.6217,-0.6231,-0.6258,-0.6279,-0.6315,-0.6323,-0.6342,-0.6359,-0.6372,-0.6379,-0.6378,-0.6379,-0.6377,-0.6403,-0.6397,-0.6398,-0.6388,-0.6388,-0.6388,-0.64,0,-0.6029,-0.6075,-0.61,-0.6134,-0.6159,-0.6182,-0.6202,-0.6229,-0.6249,-0.6272,-0.6294,-0.6319,-0.6327,-0.6339,-0.6352,-0.6375,-0.6385,-0.6375,-0.6406,-0.6407,-0.6398,-0.6401,-0.6395,-0.6404,-0.6402,-0.6402,-0.6402,0,-0.6048,-0.6076,-0.6113,-0.6151,-0.6162,-0.6181,-0.6212,-0.6234,-0.6264,-0.6278,-0.6299,-0.6317,-0.6341,-0.6344,-0.6378,-0.637,-0.6384,-0.6397,-0.6398,-0.6403,-0.6405,-0.6405,-0.6408,-0.6409,-0.6405,-0.6405,-0.6405,0,-0.6037,-0.6084,-0.6113,-0.6128,-0.6173,-0.6185,-0.6204,-0.6235,-0.6252,-0.6279,-0.6291,-0.632,-0.6336,-0.6357,-0.6381,-0.6381,-0.6412,-0.6417,-0.6424,-0.6423,-0.643,-0.6429,-0.6435,-0.6438,-0.6438,-0.6438,-0.6438,0,-0.6046,-0.6068,-0.6109,-0.6126,-0.615,-0.6178,-0.6201,-0.6222,-0.6249,-0.6269,-0.629,-0.6309,-0.634,-0.6362,-0.6381,-0.6406,-0.6412,-0.6424,-0.6428,-0.6422,-0.6421,-0.6432,-0.6432,-0.6439,-0.6439,-0.6439,-0.6438,0,-0.6039,-0.6067,-0.6099,-0.6139,-0.615,-0.6166,-0.62,-0.6217,-0.6237,-0.6263,-0.6271,-0.6304,-0.6331,-0.6357,-0.6393,-0.6406,-0.643,-0.6437,-0.6421,-0.6423,-0.6429,-0.6428,-0.6443,-0.6446,-0.6446,-0.6446,-0.6446,0,-0.6043,-0.606,-0.6102,-0.6118,-0.6137,-0.6163,-0.6181,-0.6209,-0.6227,-0.6262,-0.6274,-0.6303,-0.6328,-0.637,-0.6396,-0.6424,-0.6431,-0.6434,-0.6435,-0.6428,-0.6431,-0.643,-0.6431,-0.6433,-0.6433,-0.6433,-0.6433,0,-0.6047,-0.606,-0.6087,-0.6118,-0.6139,-0.6165,-0.6191,-0.6202,-0.6235,-0.6254,-0.6282,-0.6301,-0.6339,-0.6367,-0.6397,-0.6415,-0.6429,-0.6432,-0.6436,-0.6429,-0.6419,-0.6425,-0.6419,-0.6432,-0.6432,-0.6432,-0.6432,-0.6432,-0.6046,-0.6062,-0.6094,-0.6123,-0.6145,-0.6169,-0.6187,-0.6211,-0.6235,-0.6268,-0.6283,-0.6311,-0.634,-0.6383,-0.6401,-0.6423,-0.6426,-0.643,-0.6432,-0.6432,-0.6431,-0.6416,-0.6428,-0.6428,-0.6428,-0.6428,-0.6428,0,-0.6051,-0.6073,-0.6099,-0.6135,-0.6157,-0.6169,-0.6199,-0.6216,-0.6241,-0.6267,-0.6291,-0.6324,-0.6351,-0.6379,-0.6407,-0.6419,-0.6426,-0.6426,-0.6425,-0.6429,-0.6426,-0.6421,-0.642,-0.642,-0.642,-0.642,-0.642,-0.642,-0.6057,-0.6085,-0.6102,-0.6141,-0.6162,-0.6191,-0.6207,-0.6229,-0.625,-0.6285,-0.6308,-0.6327,-0.6353,-0.6384,-0.6409,-0.6416,-0.6426,-0.6423,-0.6432,-0.6429,-0.643,-0.643,-0.6425,-0.6425,-0.6425,-0.6434,-0.6434,-0.6434]}]]